Preview of NWS' New Version of Forecast
This preview is not operational and should not be used for support decisions.

Regional Weather Roundup (RWR)

Issued by National Weather Service (NWS)

                            
000
ASUS46 KPQR 180510
RWROR 

OREGON REGIONAL WEATHER ROUNDUP
NATIONAL WEATHER SERVICE PORTLAND OR
1000 PM PDT MON JUN 17 2019

NOTE: "FAIR" INDICATES FEW OR NO CLOUDS BELOW 12,000 FEET WITH
NO SIGNIFICANT WEATHER AND/OR OBSTRUCTIONS TO VISIBILITY.

ORZ001>013-180600-
NORTHWEST OREGON

  
CITY           SKY/WX    TMP DP  RH WIND       PRES   REMARKS
ASTORIA        CLOUDY    57  55  93 W7        30.23R                  
TILLAMOOK      MOCLDY    57  54  88 CALM      30.24R                  
NEWPORT        CLOUDY    54  54 100 N5        30.23R                  
PORTLAND       PTCLDY    68  54  60 NW9       30.16R                  
VANCOUVER WA   CLEAR     67  54  63 NW8       30.15R                  
SCAPPOOSE      CLEAR     65  54  67 NW12      30.16R                  
HILLSBORO      CLEAR     63  54  72 NW10      30.16R                  
AURORA         CLEAR     69  53  56 NW9G22    30.15R                  
MCMINNVILLE    CLEAR     67  54  63 N5        30.15R                  
SALEM          CLEAR     68  53  58 NW10      30.14R                  
CORVALLIS      CLEAR     66  54  65 NW13G20   30.15R                  
EUGENE         PTCLDY    64  54  69 E6        30.14R                  
$$

ORZ021-028-180600-
SOUTHWEST OREGON

  
CITY           SKY/WX    TMP DP  RH WIND       PRES   REMARKS
NORTH BEND     CLOUDY    56  54  93 N20G29    30.19S                  
BROOKINGS      CLEAR     68  54  60 VRB7      30.02R                  
ROSEBURG       CLEAR     75  54  47 CALM      30.11R                  
SEXTON SUMMIT  CLEAR     62  48  60 N8G22     30.20R                  
GRANTS PASS    FAIR      77  48  36 VRB7      30.11R                  
MEDFORD        CLEAR     76  45  33 NW6       30.08R                  
$$

ORZ014>016-041-180600-
COLUMBIA GORGE

  
CITY           SKY/WX    TMP DP  RH WIND       PRES   REMARKS
TROUTDALE      CLEAR     68  55  63 NW5       30.15R                  
HOOD RIVER     PTCLDY    72  54  53 W3        30.08R                  
THE DALLES     PTCLDY    75  52  44 W14       30.01R                  
$$

ORZ029>031-041-044-049-050-061>064-502-503-505>511-180600-
EASTERN OREGON

  
CITY           SKY/WX    TMP DP  RH WIND       PRES   REMARKS
MADRAS           N/A     64  43  45 MISG        N/A                   
REDMOND        PTCLDY    67  40  37 NW5       30.14R                  
BEND           CLEAR     66  43  42 NW9       30.15R                  
PRINEVILLE     PTCLDY    64  37  36 N13       30.14R                  
KLAMATH FALLS  CLEAR     67  48  50 W6        30.14R                  
LAKEVIEW       CLEAR     57  42  57 NW7       30.17R                  
HERMISTON      MOCLDY    76  54  46 SW17      29.92R                  
PENDLETON      PTCLDY    74  51  44 W22G30    29.97R                  
JOHN DAY       PTCLDY    68  41  37 N6        30.11R                  
MEACHAM        CLEAR     56  48  74 CALM      30.12R                  
LA GRANDE      CLEAR     66  47  50 SW3       30.06R                  
BAKER CITY     CLEAR     60  47  61 NW6       30.08R                  
BURNS          PTCLDY    62  38  40 NW3       30.13R                  
ROME             N/A     69  35  28 N8        30.07R                  
ONTARIO        CLEAR     79  44  28 NW20G26   29.97R                  
$$